CAPE
1 2 1 1 1 2 2 2 2 2 1 0 0 0 0 0 0 0 0 0 0 0 0 0 0 0 0 0 0 0 0 0 0 0 0 11 5 20 8 23 2 0 0 0 2 32 0
0 0 1 1 2 1 3 2 2 1 0 0 0 0 0 0 0 0 0 0 0 0 0 0 0 0 0 0 0 0 0 0 0 0 0 14 18 69 53 36 8 0 2 0 0 4 0
0 1 1 2 2 1 1 2 1 0 1 0 0 0 0 0 0 0 0 0 0 0 0 0 0 0 0 0 0 0 0 0 0 0 0 0 1 51 60 7 7 15 0 0 0 0 0
0 1 0 2 1 1 0 1 0 0 0 0 0 0 0 0 0 0 0 0 0 0 0 0 0 0 0 0 0 0 0 0 0 0 0 0 0 1 16 38 6 3 0 0 0 0 0
0 1 1 0 0 0 0 0 0 0 0 0 0 0 0 0 0 0 0 0 0 0 0 0 0 0 0 0 0 0 0 0 0 0 0 0 0 0 2 2 0 1 0 0 0 0 0
0 0 0 0 0 0 0 0 0 0 0 0 0 0 0 0 0 0 0 0 0 0 0 0 0 0 0 0 0 0 0 0 0 0 0 1 8 6 2 1 0 0 0 14 3 0 0
0 0 0 0 0 0 0 0 0 0 0 0 0 0 0 0 0 0 0 0 0 0 0 0 0 0 0 0 0 0 0 0 0 0 0 0 0 0 0 0 0 0 0 4 0 0 0
0 0 0 0 0 0 0 0 0 0 0 0 0 0 0 0 0 0 0 0 0 0 0 0 0 0 0 0 0 0 0 0 0 0 0 0 0 0 0 0 0 0 0 0 0 0 0
0 0 0 0 0 0 0 0 0 0 0 0 0 0 0 0 0 0 0 0 0 0 0 0 0 0 0 0 0 0 0 0 0 0 0 0 0 0 0 0 0 0 0 0 0 0 0
0 0 0 0 0 0 0 0 0 0 0 0 0 0 0 0 0 0 0 0 0 0 0 0 0 0 0 0 0 0 0 0 0 0 0 0 0 0 0 0 0 0 0 0 0 0 0
0 0 0 0 0 0 0 0 0 0 0 0 0 0 0 0 0 0 0 0 0 0 0 0 0 0 0 0 0 0 0 0 0 0 0 0 0 0 0 0 0 0 0 0 0 0 0
0 0 0 0 0 0 0 0 0 0 0 0 0 0 0 0 0 0 0 0 0 0 0 0 0 0 0 0 0 0 0 0 0 0 0 0 0 0 0 0 0 0 0 0 0 0 0
2 0 0 0 0 0 0 0 0 0 0 0 0 0 0 0 0 0 0 0 0 0 0 0 0 0 0 0 0 0 0 0 0 0 0 0 0 0 0 0 0 0 0 0 0 0 0
0 0 0 0 0 0 0 0 0 0 0 0 0 0 0 0 0 0 0 0 0 0 0 0 0 0 0 0 0 0 0 0 0 0 0 0 0 0 0 0 0 0 0 0 0 0 0
0 0 1 0 0 0 0 0 0 0 0 0 0 0 0 0 0 0 0 0 0 0 0 0 0 0 0 0 0 0 0 0 0 0 0 0 0 0 0 0 0 0 0 0 0 0 0
0 0 0 0 0 0 0 0 0 0 0 0 0 0 0 0 0 0 0 0 0 0 0 0 0 0 0 0 0 0 0 0 0 0 0 0 0 0 0 0 0 0 0 0 0 0 0
0 0 0 0 0 0 0 0 0 0 0 0 0 0 0 0 0 0 0 0 0 0 0 0 0 0 0 0 0 0 0 0 0 0 0 0 0 0 0 0 0 0 0 0 0 0 0
0 0 0 0 0 0 0 0 0 0 0 0 0 0 0 0 0 0 0 0 0 0 0 0 0 0 0 0 0 0 0 0 0 0 0 0 0 0 0 0 0 0 0 0 0 0 0
0 0 0 0 0 0 0 0 0 0 0 0 0 0 0 0 0 0 0 0 0 0 0 0 0 0 0 0 0 0 0 0 0 0 0 0 0 0 0 0 0 0 0 0 0 0 0
0 0 0 0 0 0 0 0 0 0 0 0 0 0 0 0 0 0 0 0 0 0 0 0 0 0 0 0 0 0 0 0 0 0 0 0 0 0 0 0 0 0 0 0 0 0 0
0 0 0 0 0 0 0 0 0 0 0 0 0 0 0 0 0 0 0 0 0 0 0 0 0 0 0 0 0 0 0 0 0 0 0 0 0 0 0 0 0 0 0 0 0 0 0
0 0 1 0 0 0 0 0 0 0 0 0 0 0 0 0 0 0 0 0 0 0 0 0 0 0 0 0 0 0 0 0 0 0 0 0 0 0 0 0 0 0 0 0 0 0 0
0 0 0 0 0 0 0 0 0 0 0 0 0 0 0 0 0 0 0 0 0 0 0 0 0 0 0 0 0 0 0 0 0 0 0 0 0 0 0 0 0 0 0 0 0 0 0
0 0 0 0 0 0 0 0 0 0 0 0 0 0 0 0 0 0 0 0 0 0 0 0 0 0 0 0 0 0 0 0 0 0 0 0 0 0 0 0 0 0 0 0 0 0 0
0 0 0 0 0 0 0 0 0 0 0 0 0 0 0 0 0 0 0 0 0 0 0 0 0 0 0 0 0 0 0 0 0 0 0 0 0 0 0 0 0 0 0 0 0 0 0
0 0 0 0 0 0 0 0 0 0 0 0 0 0 0 0 0 0 0 0 0 0 0 0 0 0 0 0 0 0 0 0 0 0 0 0 0 0 0 0 0 0 0 0 0 0 0
0 0 0 0 0 0 0 0 0 0 0 0 0 0 0 0 0 0 0 0 0 0 0 0 0 0 0 0 0 0 0 0 0 0 0 0 0 0 0 0 0 0 0 0 0 0 0
0 0 0 0 0 0 0 0 0 0 0 0 0 0 0 0 0 0 0 0 0 0 0 0 0 0 0 0 1 0 0 4 0 0 0 0 0 0 0 0 0 0 0 0 0 0 0
0 0 0 0 0 0 0 0 0 0 0 0 0 0 0 0 0 0 0 0 0 0 0 0 0 0 1 0 0 4 5 0 0 0 0 0 0 0 2 0 1 0 0 0 0 0 0
CIN
0 0 0 0 0 0 0 0 0 0 0 0 0 0 0 0 0 0 0 0 0 0 0 0 0 0 0 0 0 0 0 0 0 0 0 -1 -1 -3 -5 -7 -1 -1 0 0 -11 -72 0
0 0 0 0 0 0 0 0 0 0 0 0 0 0 0 0 0 0 0 0 0 0 0 0 0 0 0 0 0 0 0 0 0 0 0 -4 -1 -3 -8 -6 -2 0 -4 0 0 -87 0
0 0 0 0 0 0 0 0 0 0 0 0 0 0 0 0 0 0 0 0 0 0 0 0 0 0 0 0 0 0 0 0 0 0 0 0 -1 -22 -15 -15 -5 -23 0 -33 0 0 0
0 0 0 0 0 0 0 0 0 0 0 0 0 0 0 0 0 0 0 0 0 0 0 0 0 0 0 0 0 0 0 0 0 0 0 0 0 -10 -31 -14 -34 -56 0 0 -4 0 0
0 0 0 0 0 0 0 0 0 0 0 0 0 0 0 0 0 0 0 0 0 0 0 0 0 0 0 0 0 0 0 0 0 0 0 0 0 0 -3 -8 0 -5 0 0 -2 0 0
0 0 0 0 0 0 0 0 0 0 0 0 0 0 0 0 0 0 0 0 0 0 0 0 0 0 0 0 0 0 0 0 0 0 0 -3 -23 -10 -2 -1 0 0 -2 -9 -6 0 0
0 0 0 0 0 0 0 0 0 0 0 0 0 0 0 0 0 0 0 0 0 0 0 0 0 0 0 0 0 0 0 0 0 0 0 0 0 0 0 0 0 0 0 -33 -5 0 0
0 0 0 0 0 0 0 0 0 0 0 0 0 0 0 0 0 0 0 0 0 0 0 0 0 0 0 0 0 0 0 0 0 0 0 0 0 0 0 0 0 0 0 0 0 0 0
0 0 0 0 0 0 0 0 0 0 0 0 0 0 0 0 0 0 0 0 0 0 0 0 0 0 0 0 0 0 0 0 0 0 0 0 0 0 0 0 0 0 0 0 0 0 0
0 0 0 0 0 0 0 0 0 0 0 0 0 0 0 0 0 0 0 0 0 0 0 0 0 0 0 0 0 0 0 0 0 0 0 0 0 0 0 0 0 0 0 0 0 0 0
0 0 0 0 0 0 0 0 0 0 0 0 0 0 0 0 0 0 0 0 0 0 0 0 0 0 0 0 0 0 0 0 0 0 0 0 0 0 0 0 0 0 0 0 0 0 0
0 0 0 0 0 0 0 0 0 0 0 0 0 0 0 0 0 0 0 0 0 0 0 0 0 0 0 0 0 0 0 0 0 0 0 0 0 0 0 0 0 0 0 0 0 0 0
0 0 0 0 0 0 0 0 0 0 0 0 0 0 0 0 0 0 0 0 0 0 0 0 0 0 0 0 0 0 0 0 0 0 0 0 0 0 0 0 0 0 0 0 0 0 0
0 0 0 0 0 0 0 0 0 0 0 0 0 0 0 0 0 0 0 0 0 0 0 0 0 0 0 0 0 0 0 0 0 0 0 0 0 0 0 0 0 0 0 0 0 0 0
0 0 0 0 0 0 0 0 0 0 0 0 0 0 0 0 0 0 0 0 0 0 0 0 0 0 0 0 0 0 0 0 0 0 0 0 0 0 0 0 0 0 0 0 0 0 0
0 0 0 0 0 0 0 0 0 0 0 0 0 0 0 0 0 0 0 0 0 0 0 0 0 0 0 0 0 0 0 0 0 0 0 0 0 0 0 0 0 0 0 0 0 0 0
0 0 0 0 0 0 0 0 0 0 0 0 0 0 0 0 0 0 0 0 0 0 0 0 0 0 0 0 0 0 0 0 0 0 0 0 0 0 0 0 0 0 0 0 0 0 0
0 0 0 0 0 0 0 0 0 0 0 0 0 0 0 0 0 0 0 0 0 0 0 0 0 0 0 0 0 0 0 0 0 0 0 0 0 0 0 0 0 0 0 0 0 0 0
0 0 0 0 0 0 0 0 0 0 0 0 0 0 0 0 0 0 0 0 0 0 0 0 0 0 0 0 0 0 0 0 0 0 0 0 0 0 0 0 0 0 0 0 0 0 0
0 0 0 0 0 0 0 0 0 0 0 0 0 0 0 0 0 0 0 0 0 0 0 0 0 0 0 0 0 0 0 0 0 0 0 0 0 0 0 0 0 0 0 0 0 0 0
0 0 0 -1 0 0 0 0 0 0 0 0 0 0 0 0 0 0 0 0 0 0 0 0 0 0 0 0 0 0 0 0 0 0 0 0 0 0 0 0 0 0 0 0 0 0 0
0 0 -1 0 0 0 0 0 0 0 0 0 0 0 0 0 0 0 0 0 0 0 0 0 0 0 0 0 0 0 0 0 0 0 0 0 0 0 0 0 0 0 0 0 0 0 0
0 0 0 0 0 0 0 0 0 0 0 0 0 0 0 0 0 0 0 0 0 0 0 0 0 0 0 0 0 0 0 0 0 0 0 0 0 0 0 0 0 0 0 0 0 0 0
0 0 0 0 0 0 0 0 0 0 0 0 0 0 0 0 0 0 0 0 0 0 0 0 0 0 0 0 0 0 0 0 0 0 0 0 0 0 0 0 0 0 0 0 0 0 0
0 0 0 0 0 0 0 0 0 0 0 0 0 0 0 0 0 0 0 0 0 0 0 0 0 0 0 0 0 0 0 0 0 0 0 0 0 0 0 0 0 0 0 0 0 0 0
0 0 0 -1 0 0 0 0 0 0 0 0 0 0 0 0 0 0 0 0 0 0 0 0 0 0 0 0 0 0 0 0 0 0 0 0 0 0 0 0 0 0 0 0 0 0 0
0 0 0 0 0 0 0 0 0 0 0 0 0 0 0 0 0 0 0 0 0 0 0 0 0 0 0 0 0 0 0 0 0 0 0 0 0 0 0 0 0 0 0 0 0 0 0
0 0 0 0 0 0 0 0 0 0 0 0 0 0 0 0 0 0 0 0 0 -1 -1 -1 0 0 0 0 0 -1 -1 -1 0 0 0 0 0 0 0 0 0 0 0 0 0 0 0
0 0 0 0 0 0 0 0 0 0 0 0 0 0 0 0 0 0 0 0 0 0 0 0 0 0 -18 -1 0 -13 -3 -13 0 0 0 0 0 0 -5 -1 -17 -1 0 0 0 0 0
Wind_Speed
20 16 13 18 19 13 12 8 5 8 11 14 17 17 16 14 12 11 11 13 14 14 14 14 15 16 23 24 25 16 17 17 12 18 17 16 15 12 20 19 26 28 30 33 32 30 34
21 21 21 22 24 22 20 16 12 6 10 14 16 18 18 14 12 10 11 12 13 12 14 13 14 15 22 30 19 16 16 16 16 16 16 14 15 8 6 7 4 26 27 30 34 31 31
21 22 22 22 23 23 23 23 22 15 13 23 18 18 18 18 15 12 9 10 10 12 12 14 15 19 20 27 18 16 15 17 16 15 15 12 9 11 6 5 13 5 17 28 34 34 33
20 21 21 22 22 23 24 24 24 24 23 25 25 23 20 19 16 12 7 5 7 11 13 14 17 19 24 20 17 18 18 17 15 13 14 12 12 9 12 7 4 9 8 17 27 32 35
19 21 22 22 23 24 24 25 25 24 25 26 26 23 22 18 13 7 5 3 5 10 15 15 21 21 26 18 24 19 18 19 15 15 13 13 14 15 12 19 14 13 14 12 16 23 30
17 19 20 22 23 24 24 25 25 25 25 25 26 25 23 19 11 5 3 7 13 14 16 16 18 23 22 25 19 18 17 16 17 14 16 17 16 15 17 11 16 11 13 9 16 15 26
17 19 21 21 22 23 24 25 26 25 25 26 26 27 27 23 14 10 19 20 20 20 18 23 22 22 20 20 18 21 23 16 19 22 24 18 25 25 18 13 9 7 8 17 16 18 23
16 18 19 21 22 22 24 24 25 26 26 26 27 28 29 29 22 19 21 25 23 18 18 16 18 18 16 22 24 25 25 27 25 28 25 28 27 19 13 11 9 10 15 5 12 18 20
15 17 18 20 22 23 23 24 25 26 27 27 28 28 29 30 22 22 25 24 19 18 17 18 19 19 21 20 22 24 27 23 26 28 26 27 24 19 17 20 15 21 20 7 9 17 22
14 16 18 19 21 22 23 24 25 26 27 28 29 28 29 31 20 21 22 22 19 18 20 20 22 20 21 19 21 21 24 24 25 27 25 24 23 22 20 23 18 19 13 5 9 17 17
16 19 18 19 20 21 23 24 25 27 28 29 29 27 27 24 21 21 22 20 19 18 24 22 22 19 20 22 19 22 20 22 26 23 24 26 24 24 22 21 17 16 7 7 8 14 21
12 18 19 18 20 21 21 23 24 26 29 30 28 26 25 21 19 21 21 20 19 21 20 21 21 24 24 19 20 19 20 19 19 23 20 19 22 23 22 14 12 11 11 9 12 12 16
11 14 14 14 15 18 21 25 25 26 28 31 28 25 23 21 21 22 22 21 19 19 18 20 23 24 22 20 22 23 22 24 28 28 26 23 21 22 22 21 19 20 19 20 19 17 13
8 12 14 16 16 18 20 24 26 27 29 31 28 25 20 20 22 21 21 18 19 15 17 20 22 21 20 23 21 24 21 24 24 25 21 26 25 23 23 24 19 18 22 22 18 16 9
11 11 12 16 18 18 20 22 24 28 29 31 27 21 21 20 20 20 18 17 17 19 15 21 23 22 21 21 22 22 22 22 22 25 27 25 23 19 20 21 20 18 23 17 15 10 12
12 13 14 15 18 18 21 21 25 25 29 29 22 21 20 20 18 17 17 16 15 16 18 19 23 21 24 26 24 28 21 21 22 22 23 22 22 20 18 17 17 18 15 19 16 15 15
8 9 14 15 17 17 21 20 23 24 28 24 20 21 19 19 18 16 18 17 18 17 17 19 21 20 20 23 23 24 20 19 19 20 21 19 19 15 16 15 16 18 16 15 14 11 14
8 9 11 12 14 15 18 20 24 25 27 18 19 22 17 18 21 17 19 19 19 18 17 18 19 19 20 24 24 23 19 22 20 21 21 19 19 20 10 17 14 15 16 14 17 14 10
7 6 7 8 11 15 20 21 25 24 23 18 20 19 17 17 24 20 19 21 20 20 19 18 19 19 21 21 25 21 22 21 21 20 21 21 20 24 22 19 16 16 17 12 9 10 9
7 6 5 6 9 15 17 20 21 23 21 16 19 20 18 17 21 24 25 23 21 18 20 20 21 21 21 22 17 21 22 21 21 20 22 21 18 16 17 14 15 13 12 11 6 9 8
7 5 3 5 6 10 11 16 20 20 21 16 15 19 18 22 21 19 21 23 24 26 20 19 21 20 21 24 26 21 19 21 22 20 21 19 20 16 12 16 16 14 13 10 9 10 11
6 5 4 4 6 8 13 18 20 20 18 13 18 19 18 20 21 22 21 24 24 26 22 23 22 26 27 23 23 28 32 32 26 21 24 18 23 24 21 24 16 13 13 12 9 9 11
7 5 3 4 7 8 14 16 18 19 17 17 16 15 19 21 22 23 24 23 25 27 22 21 25 28 28 29 28 28 27 25 18 20 18 23 23 27 25 30 40 35 20 20 19 16 18
7 4 2 3 3 6 10 14 17 18 17 16 16 17 19 23 21 24 26 26 26 24 24 25 31 28 25 29 31 26 20 15 14 14 12 17 22 28 34 35 30 24 27 26 29 25 27
6 3 1 1 2 6 9 11 13 14 17 16 14 16 18 23 22 24 23 24 26 27 26 23 22 23 28 28 30 32 29 26 20 20 18 14 20 26 29 29 34 35 31 25 28 32 42
5 4 2 2 4 5 7 9 9 11 14 16 16 16 16 20 22 21 24 26 29 28 27 22 20 21 25 25 26 28 30 32 28 26 24 23 21 23 29 35 38 30 28 26 29 42 31
4 3 2 2 5 6 5 7 8 9 10 14 16 16 18 19 19 20 22 24 22 24 24 26 26 26 21 26 27 29 31 26 30 31 30 28 27 27 31 37 34 34 31 28 35 32 37
4 2 1 3 4 5 6 8 10 12 12 11 13 16 15 17 17 17 17 20 22 23 24 25 31 24 24 26 27 28 30 28 30 30 32 32 33 32 32 35 41 28 31 32 38 41 40
4 2 2 3 4 5 7 9 11 13 13 12 14 16 16 15 20 20 21 21 21 23 25 23 24 25 24 26 28 31 34 35 39 44 32 40 33 39 33 36 37 37 37 38 42 45 48
Wind_Direction
64 90 105 75 341 298 291 266 207 128 110 91 74 69 70 72 77 74 67 59 53 51 48 46 45 45 48 47 40 47 45 45 50 42 43 43 47 51 5 340 301 282 273 262 260 257 256
26 34 41 41 4 341 325 309 286 238 110 84 70 61 56 67 69 74 66 60 55 52 50 50 52 50 52 38 49 49 48 48 46 49 47 53 54 66 98 212 233 273 274 269 257 252 256
7 360 351 346 350 347 340 339 336 297 291 35 57 58 55 54 60 65 70 61 56 51 53 55 59 58 54 42 55 54 50 47 54 55 49 60 76 75 90 152 42 36 218 266 255 247 248
360 360 358 345 336 340 343 347 348 350 340 350 25 39 49 49 53 57 63 60 57 55 56 62 61 62 51 59 57 50 48 49 52 60 65 72 82 88 90 122 141 100 150 234 262 243 242
355 347 345 344 343 338 339 342 347 352 357 357 10 32 37 47 52 54 45 44 69 65 60 65 55 55 47 58 42 49 52 46 51 67 69 81 77 76 78 59 72 100 67 185 280 251 238
1 358 353 345 338 337 339 341 341 346 353 2 5 18 28 39 49 42 6 55 59 61 61 67 57 49 51 40 42 47 53 52 55 55 65 69 73 66 68 76 68 86 79 180 299 276 250
352 347 347 347 345 339 336 339 342 345 346 354 2 5 10 25 42 48 41 46 42 43 49 45 43 46 44 41 59 52 46 48 55 57 51 64 55 55 62 74 89 106 122 71 288 290 262
344 343 346 344 343 343 337 337 341 341 344 345 346 353 358 1 24 38 41 33 38 42 38 51 47 47 49 46 45 46 44 49 51 48 53 53 52 57 67 71 81 94 79 69 107 286 283
343 341 342 343 340 340 338 335 335 339 338 339 342 345 348 348 16 28 28 30 42 42 39 42 43 43 42 45 43 43 43 50 51 48 50 51 53 59 65 63 67 64 61 131 206 254 269
338 338 337 338 339 338 336 336 333 329 334 333 337 339 344 341 17 19 20 26 33 39 27 32 34 41 39 43 43 45 45 50 49 45 51 55 52 53 56 58 63 71 74 157 222 278 282
326 326 331 333 336 339 336 333 333 329 327 330 330 339 345 359 3 7 9 19 24 28 13 23 28 39 35 35 37 41 48 49 40 44 49 48 49 50 53 54 63 67 71 108 168 238 289
333 320 324 332 333 335 337 335 332 330 323 324 332 336 345 358 3 2 6 11 15 13 13 18 22 20 23 34 34 36 40 48 49 42 46 46 51 54 53 54 67 57 58 93 104 105 302
331 324 330 341 344 342 339 328 331 330 325 320 327 336 342 350 351 354 358 3 8 7 16 14 12 13 19 25 25 27 31 32 32 31 34 37 46 48 49 49 59 51 58 70 73 78 76
322 322 323 331 341 342 337 329 326 326 322 318 323 329 343 342 342 350 352 4 356 13 9 8 7 9 17 18 22 18 27 26 33 31 30 29 31 38 41 45 51 56 58 62 63 64 73
306 320 320 324 330 335 335 334 333 326 324 316 323 332 332 339 346 347 355 353 355 359 9 2 359 4 10 13 14 17 17 22 26 26 25 24 27 37 39 39 50 52 51 58 64 81 83
305 305 316 323 325 331 330 337 332 331 324 319 334 330 330 337 346 351 349 343 352 359 359 1 355 1 357 359 4 5 14 21 20 24 25 25 20 34 35 44 51 52 52 50 58 58 62
301 302 309 315 323 333 329 341 333 334 327 330 334 331 331 334 340 347 336 339 344 351 356 354 352 353 354 352 358 3 7 13 19 16 17 23 27 26 27 43 33 35 47 52 50 58 49
273 284 303 311 321 328 331 338 332 331 326 339 334 323 338 330 331 337 331 336 344 345 350 349 350 351 350 349 348 352 0 3 9 9 7 15 13 13 5 26 46 37 30 34 29 31 29
261 276 296 305 319 324 326 328 324 335 338 336 325 326 338 334 318 324 330 330 334 337 341 350 346 348 351 347 346 350 351 359 359 3 2 6 7 360 10 24 36 23 19 24 18 13 1
249 267 276 302 319 323 328 325 327 326 334 342 329 326 334 331 322 319 324 328 332 344 339 339 340 343 343 341 343 343 346 352 355 354 352 352 355 353 346 343 346 329 331 338 327 348 339
235 235 253 298 325 332 341 336 325 327 334 340 333 325 329 321 322 326 329 327 326 328 335 339 337 337 338 336 336 333 338 343 344 343 345 349 340 340 324 334 331 306 295 298 321 289 319
234 203 208 302 319 323 322 325 327 329 332 337 329 327 331 323 324 322 324 324 325 328 331 331 328 330 333 328 329 327 327 328 333 340 334 340 335 339 336 343 336 319 318 319 314 301 301
207 200 280 315 324 329 327 321 326 330 333 325 332 334 326 321 320 321 322 323 327 331 330 331 331 329 327 326 327 326 324 323 315 319 315 323 327 330 329 336 325 334 353 353 346 341 339
200 236 269 320 343 343 337 328 326 331 332 330 332 332 324 317 318 318 320 322 323 326 322 323 323 323 330 329 326 324 318 300 303 294 307 316 320 323 320 325 328 336 333 332 329 326 330
208 201 210 303 355 347 340 343 342 344 343 342 344 334 325 318 323 322 324 325 325 323 321 324 329 333 333 332 328 326 328 328 329 324 322 321 322 324 323 321 320 325 333 337 333 328 326
207 196 230 298 328 343 342 347 359 360 353 350 350 348 339 328 326 327 327 325 322 325 327 332 337 338 334 331 329 323 322 322 325 327 333 329 323 316 321 318 318 330 334 335 332 318 338
199 224 261 310 332 343 353 0 0 5 3 352 345 347 341 333 333 333 330 331 336 331 328 327 331 332 339 330 321 319 316 317 317 318 319 322 320 310 308 310 314 321 325 327 316 319 325
201 215 294 327 335 340 348 347 348 346 347 353 353 350 346 337 333 333 332 328 327 324 322 328 325 330 327 325 325 324 320 321 318 320 319 318 316 315 315 311 311 335 331 325 321 321 324
204 214 308 333 334 341 339 342 341 343 342 344 340 347 343 332 329 331 324 320 317 318 317 320 318 322 327 323 323 323 316 315 313 308 316 309 311 310 307 306 313 322 324 324 323 318 315